Regional Weather Roundup
Issued by NWS Charleston, SC

Current Version | Previous Version | Graphics & Text | Print | Product List | Glossary On
Versions: 1 2 3 4 5 6 7 8 9 10 11 12 13 14 15 16 17 18 19 20 21 22 23 24 25 26 27 28 29 30 31 32 33 34 35 36 37 38 39 40 41 42 43 44 45 46 47 48 49 50
000
ASUS42 KCHS 270427
RWRCHS

REGIONAL WEATHER ROUNDUP
NATIONAL WEATHER SERVICE CHARLESTON SC
1200 AM EDT WED MAY 27 2015

NOTE: "FAIR" INDICATES FEW OR NO CLOUDS BELOW 12,000 FEET WITH NO
SIGNIFICANT WEATHER AND/OR OBSTRUCTIONS TO VISIBILITY.

NOT ALL STATIONS ARE QUALITY CONTROLLED BY THE NATIONAL
WEATHER SERVICE. USE DATA WITH CAUTION...ESPECIALLY
DEWPOINT OBSERVATIONS.

SCZ027-030-031-034>040-042>050-270500-
...SOUTHEAST SOUTH CAROLINA...

CITY           SKY/WX    TMP DP  RH WIND       PRES   REMARKS
N CHARLESTON   CLOUDY    75  71  87 S7        30.26S
WATERFRONT PAR   N/A     77  73  87 S8        30.24R
MOUNT PLEASANT LGT RAIN  77  72  83 S7        30.27R
JOHNS ISLAND   CLOUDY    75  73  94 S7        30.27S
PINOPOLIS        N/A     77  73  88 CALM      30.19F
MONCKS CORNER  FAIR      75  72  88 CALM      30.26S
SUMMERVILLE    FAIR      72  72 100 CALM      30.28R
BEAUFORT MCAS  CLOUDY    76  70  82 SW3       30.27R
BEAUFORT ARPT  FAIR      77  72  83 CALM      30.27R
HILTON HEAD IS MOCLDY    77  72  83 S5        30.28S
WALTERBORO     CLOUDY    73  70  88 SW3       30.29R
ALLENDALE      MOCLDY    72  68  88 N5        30.26F

...SOUTHERN MIDLANDS AND PEE DEE...

CITY           SKY/WX    TMP DP  RH WIND       PRES   REMARKS
GEORGETOWN     NOT AVBL
KINGSTREE      NOT AVBL
ORANGEBURG     CLOUDY    72  67  84 NW7       30.28S
BARNWELL       MOCLDY    70  70 100 CALM      30.28F
AIKEN          LGT RAIN  66  64  94 E3        30.30F
MANNING        CLOUDY    73  59  60 SW8       30.27R
COLUMBIA       CLOUDY    71  65  81 CALM      30.26F
SUMTER         CLOUDY    77  69  76 S12       30.25R
FLORENCE       MOCLDY    73  69  87 S7        30.26S
MYRTLE BEACH   CLOUDY    77  68  73 S6        30.29F
N MYRTLE BEACH CLOUDY    77  70  79 S10       30.27R

$$

GAZ063-065-086>088-099>101-113>116-118-119-134>141-150-270500-
...SOUTHEAST GEORGIA...

CITY           SKY/WX    TMP DP  RH WIND       PRES   REMARKS
SAVANNAH ARPT  CLOUDY    76  71  85 SW3       30.27S
HUNTER AAF     CLOUDY    75  75 100 S2        30.24S
FORT STEWART   CLOUDY    73  70  88 SW5       30.24S
STATESBORO     CLOUDY    69  32  25 CALM      30.27R
SYLVANIA       CLOUDY    72  70  94 E5        30.27F
CLAXTON        RAIN      70  70 100 NW3       30.27R

...CSRA...CENTRAL AND FAR SOUTHEAST GEORGIA...

CITY           SKY/WX    TMP DP  RH WIND       PRES   REMARKS
THOMSON        CLOUDY    70  70 100 E3        30.28F
AUGUSTA-BUSH   LGT RAIN  68  67  96 SE8       30.25F
AUGUSTA-DANIEL LGT RAIN  70  67  90 SE8       30.26F
SWAINSBORO     CLOUDY   N/A N/A N/A SE12      30.25S
VIDALIA        CLOUDY    70  68  94 SE3       30.25F
EASTMAN        FAIR      69  69 100 SE5       30.22F
HAZLEHURST     DRIZZLE   70  70 100 E6        30.23F
ALMA           FOG       70  69  97 E5        30.24F VSB 3/4
WAYCROSS       CLOUDY    70  70 100 CALM      30.25F
JESUP          MOCLDY    73  72  94 CALM      30.26F
BAXLEY         FAIR      70  70 100 CALM      30.27R
BRUNSWICK      CLOUDY    75  72  88 E5        30.26F
SAINT SIMONS   NOT AVBL

$$

SCZ027-028-034-036>038-045-046-048>050-GAZ119-141-270500-
...LAKE AND SUPPLEMENTAL COASTAL OBSERVATIONS...

STATION/POSITION TIME  TEMP    WIND        PRES    WAVE   SWELL
                       AIR SEA DIR/SP/G            HT/PER HT/PER/DIR
                 (UTC) (F)     (DEG/KT/KT) (MB)    (FT/S) (FT/S/D)
UPR LAKE MARION  NOT AVBL
WINYAH BAY       0345   75     150/  4     1024.0S
LAKE MURRAY      0300   69     300/  3/  9 1024.4R
ACE BASIN NERRS  NOT AVBL
FORT PULASKI     0400   77 79  160/  3/  6 1025.3F
SAPELO ISLAND    0400   77        CALM     1025.0S

$$

ANZ835-935-AMZ111-154-330-350-352-354-370-450-454-472-270500-
...C-MAN AND BUOY OBSERVATIONS...

STATION/POSITION TIME  TEMP    WIND        PRES    WAVE   SWELL
                       AIR SEA DIR/SP/G            HT/PER HT/PER/DIR
                 (UTC) (F)     (DEG/KT/KT) (MB)    (FT/S) (FT/S/D)
BUOY 41004       0350   78 76  170/ 12/ 14 1024.4F   4/ 7   2/ 7
BUOY 41008       0350   78 78  150/ 10/ 12 1024.8S   3/ 6   2/100/ 6
FOLLY BEACH CMAN 0400   77     180/ 13/ 15 1024.9S
CAPERS NEARSHORE 0308   77     180/ 12/ 14 1024.8F
FRIPP NEARSHORE  0300   78     180/ 10/ 14 1023.9R


STATION/POSITION TIME  TEMP    WIND        PRES    WAVE   SWELL
                       AIR SEA DIR/SP/G            HT/PER HT/PER/DIR
                 (UTC) (F)     (DEG/KT/KT) (MB)    (FT/S) (FT/S/D)
5E ST. MARYS GA  0321      79                N/A     3/ 6
FRYING PAN BUOY  0350   77 75  170/ 10/ 12 1026.0S   4/ 6   3/110/ 6
BUOY 41025       0350   74 76  180/ 16/ 19 1026.1R   3/ 5   2/ 90/13
CAPE LOOKOUT NC  0400   74     170/ 14/ 16 1025.5F
BUOY 41002       0350   73 74  140/ 12/ 14 1026.4F   4/ 7   3/120/ 7
BUOY 41010       0320   78 81   80/ 12/ 16 1024.1R
ST AUGUSTINE FL  0400   78 80  130/ 12/ 13 1024.9R


$$


USA.gov is the U.S. government's official web portal to all federal, state and local government web resources and services.